EN

Hourly Weather Sheshory

Today, 18 May, Tuesday

Time Temperature Precipitation Wind Pressure Humidity
00:00 +14°C° 0 mm 2 mps 708 mmHg 80%
01:00 +13°C° 0 mm 2 mps 708 mmHg 84%
02:00 +14°C° 0 mm 1 mps 707 mmHg 79%
03:00 +13°C° 0 mm 2 mps 707 mmHg 83%
04:00 +12°C° 0.1 mm 4 mps 707 mmHg 96%
05:00 +12°C° 1.4 mm 2 mps 707 mmHg 100%
06:00 +12°C° 0.1 mm 1 mps 707 mmHg 100%
07:00 +12°C° 0 mm 1 mps 707 mmHg 100%
08:00 +13°C° 0 mm 1 mps 707 mmHg 98%
09:00 +14°C° 0 mm 1 mps 707 mmHg 93%
10:00 +15°C° 0 mm 1 mps 707 mmHg 91%
11:00 +15°C° 0.8 mm 2 mps 707 mmHg 93%
12:00 +14°C° 0.5 mm 3 mps 707 mmHg 88%
13:00 +16°C° 0 mm 3 mps 707 mmHg 92%
14:00 +17°C° 0.4 mm 3 mps 707 mmHg 91%
15:00 +14°C° 1.1 mm 6 mps 707 mmHg 91%
16:00 +14°C° 0.2 mm 5 mps 707 mmHg 90%
17:00 +14°C° 0.2 mm 5 mps 707 mmHg 90%
18:00 +14°C° 0.9 mm 5 mps 707 mmHg 94%
19:00 +11°C° 0 mm 7 mps 708 mmHg 91%
20:00 +13°C° 0 mm 6 mps 709 mmHg 90%
21:00 +13°C° 0 mm 6 mps 709 mmHg 87%
22:00 +11°C° 0 mm 6 mps 709 mmHg 87%
23:00 +11°C° 0 mm 6 mps 709 mmHg 88%

Tomorrow, 19 May, Wednesday

Time Temperature Precipitation Wind Pressure Humidity
00:00 +11°C° 0 mm 6 mps 710 mmHg 89%
01:00 +11°C° 0 mm 6 mps 710 mmHg 91%
02:00 +11°C° 0 mm 6 mps 710 mmHg 92%
03:00 +10°C° 0 mm 7 mps 710 mmHg 92%
04:00 +10°C° 0 mm 6 mps 710 mmHg 91%
05:00 +10°C° 0 mm 5 mps 711 mmHg 92%
06:00 +10°C° 0 mm 6 mps 711 mmHg 91%
07:00 +11°C° 0 mm 6 mps 712 mmHg 89%
08:00 +13°C° 0 mm 6 mps 712 mmHg 87%
09:00 +14°C° 0 mm 6 mps 712 mmHg 88%
10:00 +14°C° 0 mm 6 mps 713 mmHg 90%
11:00 +15°C° 0 mm 6 mps 713 mmHg 90%
12:00 +15°C° 0 mm 5 mps 713 mmHg 93%
13:00 +16°C° 0.1 mm 5 mps 713 mmHg 90%
14:00 +17°C° 0.6 mm 4 mps 713 mmHg 92%
15:00 +18°C° 0.6 mm 4 mps 713 mmHg 86%
16:00 +17°C° 0.1 mm 3 mps 712 mmHg 86%
17:00 +17°C° 0.1 mm 3 mps 712 mmHg 84%
18:00 +16°C° 0.8 mm 2 mps 712 mmHg 94%
19:00 +15°C° 4.4 mm 2 mps 712 mmHg 99%
20:00 +13°C° 7.3 mm 3 mps 713 mmHg 98%
21:00 +14°C° 1.4 mm 1 mps 713 mmHg 91%
22:00 +14°C° 0 mm 1 mps 712 mmHg 92%
23:00 +14°C° 0 mm 1 mps 712 mmHg 89%

Day after tomorrow, 20 May, Thursday

Time Temperature Precipitation Wind Pressure Humidity
00:00 +14°C° 0 mm 1 mps 712 mmHg 87%
01:00 +13°C° 0.1 mm 1 mps 712 mmHg 96%
02:00 +12°C° 0.2 mm 1 mps 711 mmHg 100%
03:00 +12°C° 0 mm 2 mps 711 mmHg 100%
04:00 +11°C° 0 mm 3 mps 711 mmHg 100%
05:00 +11°C° 0 mm 3 mps 711 mmHg 100%
06:00 +10°C° 0 mm 2 mps 711 mmHg 100%
07:00 +11°C° 0.3 mm 1 mps 712 mmHg 100%
08:00 +10°C° 0.8 mm 2 mps 711 mmHg 100%
09:00 +12°C° 2.4 mm 2 mps 712 mmHg 100%
10:00 +11°C° 2.2 mm 4 mps 711 mmHg 100%
11:00 +12°C° 0.4 mm 4 mps 712 mmHg 100%
12:00 +12°C° 0 mm 4 mps 712 mmHg 100%
13:00 +13°C° 0 mm 4 mps 712 mmHg 98%
14:00 +13°C° 0.8 mm 5 mps 711 mmHg 94%
15:00 +13°C° 0 mm 5 mps 711 mmHg 95%
16:00 +11°C° 3.1 mm 8 mps 711 mmHg 100%
17:00 +9°C° 26.2 mm 6 mps 712 mmHg 100%
18:00 +8°C° 23.5 mm 6 mps 712 mmHg 100%
19:00 +11°C° 3.1 mm 4 mps 712 mmHg 100%
20:00 +9°C° 0 mm 5 mps 713 mmHg 100%
21:00 +9°C° 0 mm 5 mps 713 mmHg 100%
22:00 +10°C° 0.5 mm 3 mps 713 mmHg 100%
23:00 +9°C° 0.1 mm 6 mps 714 mmHg 100%

21 May, Friday

Time Temperature Precipitation Wind Pressure Humidity
00:00 +9°C° 0 mm 6 mps 714 mmHg 100%
01:00 +10°C° 2.7 mm 4 mps 714 mmHg 100%
02:00 +9°C° 1.7 mm 7 mps 715 mmHg 100%
03:00 +9°C° 0 mm 6 mps 715 mmHg 100%
04:00 +8°C° 0 mm 6 mps 716 mmHg 100%
05:00 +8°C° 0 mm 6 mps 716 mmHg 100%
06:00 +8°C° 0 mm 6 mps 717 mmHg 100%
07:00 +8°C° 0.5 mm 5 mps 718 mmHg 100%
08:00 +8°C° 0.1 mm 5 mps 719 mmHg 100%
09:00 +8°C° 0 mm 4 mps 719 mmHg 100%
10:00 +8°C° 0 mm 4 mps 720 mmHg 100%
11:00 +10°C° 0 mm 4 mps 720 mmHg 100%
12:00 +11°C° 0 mm 4 mps 721 mmHg 100%
13:00 +12°C° 0 mm 5 mps 721 mmHg 97%
14:00 +13°C° 0 mm 4 mps 721 mmHg 92%
15:00 +14°C° 0 mm 4 mps 721 mmHg 91%
16:00 +14°C° 1.1 mm 4 mps 721 mmHg 91%
17:00 +14°C° 0.1 mm 4 mps 721 mmHg 91%
18:00 +13°C° 0.2 mm 4 mps 721 mmHg 94%
19:00 +12°C° 1 mm 3 mps 721 mmHg 95%
20:00 +13°C° 0 mm 2 mps 721 mmHg 96%
21:00 +12°C° 0 mm 2 mps 722 mmHg 97%
22:00 +12°C° 0 mm 1 mps 722 mmHg 95%
23:00 +12°C° 0 mm 1 mps 722 mmHg 95%

22 May, Saturday

Time Temperature Precipitation Wind Pressure Humidity
00:00 +12°C° 0 mm 1 mps 721 mmHg 94%
01:00 +11°C° 0 mm 1 mps 721 mmHg 93%
02:00 +11°C° 0 mm 1 mps 721 mmHg 93%
03:00 +11°C° 0 mm 1 mps 721 mmHg 91%
04:00 +11°C° 0 mm 1 mps 721 mmHg 89%
05:00 +10°C° 0 mm 1 mps 721 mmHg 89%
06:00 +10°C° 0 mm 1 mps 721 mmHg 94%
07:00 +11°C° 0 mm 1 mps 721 mmHg 96%
08:00 +13°C° 0 mm 2 mps 721 mmHg 88%
09:00 +14°C° 0 mm 2 mps 721 mmHg 85%
10:00 +15°C° 0 mm 2 mps 722 mmHg 82%
11:00 +16°C° 0 mm 3 mps 721 mmHg 85%
12:00 +17°C° 0 mm 3 mps 721 mmHg 88%
13:00 +18°C° 0 mm 3 mps 721 mmHg 88%
14:00 +18°C° 0 mm 3 mps 721 mmHg 88%
15:00 +18°C° 0 mm 4 mps 721 mmHg 87%
16:00 +18°C° 0 mm 4 mps 720 mmHg 89%
17:00 +18°C° 0.4 mm 3 mps 720 mmHg 88%
18:00 +17°C° 0.4 mm 3 mps 720 mmHg 91%
19:00 +17°C° 0 mm 3 mps 720 mmHg 92%
20:00 +16°C° 0 mm 2 mps 720 mmHg 97%
21:00 +15°C° 0 mm 1 mps 720 mmHg 97%
22:00 +15°C° 0 mm 1 mps 720 mmHg 94%
23:00 +15°C° 0 mm 1 mps 720 mmHg 91%

23 May, Sunday

Time Temperature Precipitation Wind Pressure Humidity
00:00 +15°C° 0 mm 1 mps 720 mmHg 81%
01:00 +15°C° 0 mm 1 mps 720 mmHg 70%
02:00 +15°C° 0 mm 1 mps 719 mmHg 65%
03:00 +14°C° 0 mm 2 mps 719 mmHg 63%
04:00 +14°C° 0 mm 2 mps 719 mmHg 66%
05:00 +14°C° 0 mm 1 mps 719 mmHg 67%
06:00 +14°C° 0 mm 1 mps 719 mmHg 70%
07:00 +15°C° 0 mm 1 mps 719 mmHg 82%
08:00 +15°C° 0 mm 0 mps 720 mmHg 79%
09:00 +18°C° 0 mm 1 mps 720 mmHg 76%
10:00 +19°C° 0 mm 1 mps 721 mmHg 74%
11:00 +20°C° 0 mm 1 mps 721 mmHg 76%
12:00 +20°C° 0 mm 2 mps 721 mmHg 76%
13:00 +19°C° 0 mm 4 mps 721 mmHg 93%
14:00 +18°C° 1.4 mm 3 mps 721 mmHg 98%
15:00 +18°C° 2.5 mm 3 mps 721 mmHg 99%
16:00 +17°C° 1 mm 2 mps 720 mmHg 98%
17:00 +17°C° 0.8 mm 3 mps 720 mmHg 95%
18:00 +18°C° 0 mm 3 mps 720 mmHg 97%
19:00 +18°C° 0.2 mm 3 mps 720 mmHg 99%
20:00 +17°C° 0.3 mm 2 mps 720 mmHg 100%
21:00 +18°C° 0 mm 1 mps 720 mmHg 99%
22:00 +16°C° 0 mm 1 mps 720 mmHg 100%
23:00 +16°C° 0 mm 1 mps 720 mmHg 100%
Show more

We Need Your Consent

Meteoprog and our Service Providers may store and access personal data such as cookies, device identifiers or other similar technologies on your device and process such data to personalise content and ads, as well as provide social media features and to analyse the traffic.

  • Store and/or access information on your device

    Cookies, device identifiers or other information can be stored or accessed on your device for the purposes indicated above.

  • Personalised ads and content, ad and content measurement, audience insights, and products development

    Ads and content can be personalised based on a profile. More data can be added to better personalise ads and content. Ad and content performance can be measured. Insights about the audience who saw the ads and content can be derived. Such data can be used to develop or improve user’s experience, systems and software.

By clicking ‘I Agree’ you will allow the use of indicated cookies, device identifiers, web beacons or other similar technologies. Your settings can be changed in the browser on your device.

For certain purposes, legitimate interests may be relied on, rather than consent. You can read more about this in our Privacy and Cookie Policy.